This demonstration page uses our WeatherBlox Daily Observations layout. Learn more.

Left ArrowRight Arrow

39.01783, -85.05884

Hourly Observations for February 16, 2021

Temp ( °F °C ) Dew Point ( °F °C ) Humidity (%) Winds ( mph kmh ) Pressure ( in mb ) Visibility ( mi km ) Precip ( " mm )
12:10 am 00:10 Cloudy with Light Snow 16 -8.9 12 -11.1 84 84 NNW 13 20 29.80 1009 3 5 0.00 0.00
12:18 am 00:18 Cloudy with Light Snow 16 -8.9 12 -11.1 84 84 NNW 13 20 29.81 1009 3 5 0.00 0.00
12:52 am 00:52 Cloudy with Light Snow 16 -8.9 11 -11.7 80 80 NNW 12 19 29.76 1008 3 5 0.00 0.00
1:14 am 01:14 Cloudy with Light Snow 15 -9.4 11 -11.7 84 84 NNW 14 22 29.81 1010 9 14 0.00 0.00
1:52 am 01:52 Cloudy 14 -10 9 -12.8 80 80 NW 10 17 29.78 1008 10 16 0.00 0.00
2:52 am 02:52 Cloudy 14 -10 9 -12.8 80 80 WNW 8 13 29.80 1009 10 16 0.00 0.00
3:52 am 03:52 Cloudy with Light Snow 14 -10 9 -12.8 80 80 W 9 15 29.83 1010 6 10 0.00 0.00
4:52 am 04:52 Cloudy with Light Snow 13 -10.6 9 -12.8 84 84 W 10 17 29.84 1011 3 4 0.00 0.00
5:08 am 05:08 Cloudy with Light Snow 13 -10.6 9 -12.8 84 84 W 8 13 29.90 1012 3 5 0.00 0.00
5:52 am 05:52 Cloudy with Light Snow 13 -10.6 9 -12.8 84 84 W 12 19 29.87 1011 3 5 0.00 0.00
6:15 am 06:15 Cloudy with Light Snow 13 -10.6 8 -13.3 81 81 W 13 20 29.94 1014 3 4 0.00 0.00
6:47 am 06:47 Cloudy with Light Snow 12 -11 7 -14 79 79 W 14 22 29.96 1014 3 5 0.00 0.00
6:52 am 06:52 Cloudy with Light Snow 12 -11.1 7 -13.9 80 80 W 12 19 29.91 1013 3 5 0.00 0.00
7:52 am 07:52 Cloudy with Light Snow 12 -11.1 7 -13.9 80 80 W 13 20 29.95 1014 3 5 0.00 0.00
7:54 am 07:54 Cloudy with Light Snow 12 -11.1 7 -13.9 80 80 W 10 17 30.00 1016 2 3 0.00 0.00
8:18 am 08:18 Cloudy with Light Snow 12 -11.1 8 -13.3 84 84 W 9 15 30.02 1017 2 3 0.00 0.00
8:31 am 08:31 Cloudy with Light Snow 12 -11.1 7 -13.9 80 80 W 10 17 30.02 1017 1 2 0.00 0.00
8:52 am 08:52 Cloudy with Light Snow 12 -11.1 7 -13.9 80 80 W 13 20 29.98 1015 1 2 0.00 0.00
9:24 am 09:24 Cloudy with Light Snow 13 -10.6 7 -13.9 77 77 W 14 22 30.05 1017 2 3 0.03 0.76
9:37 am 09:37 Cloudy with Light Snow 13 -10.6 7 -13.9 77 77 W 13 20 30.05 1017 3 5 0.03 0.76
9:52 am 09:52 Cloudy with Light Snow 13 -10.6 7 -13.9 77 77 W 10 17 30.00 1016 3 5 0.03 0.76
10:52 am 10:52 Cloudy with Light Snow 14 -10 7 -13.9 73 73 W 13 20 30.04 1017 3 5 0.00 0.00
11:19 am 11:19 Cloudy with Light Snow 15 -9.4 7 -13.9 70 70 W 10 17 30.09 1019 4 6 0.00 0.00
11:52 am 11:52 Cloudy with Light Snow 15 -9.4 7 -13.9 70 70 W 12 19 30.05 1018 3 5 0.00 0.00
12:52 pm 12:52 Cloudy with Light Snow 17 -8.3 8 -13.3 68 68 W 12 19 30.08 1019 9 14 0.00 0.00
1:52 pm 13:52 Cloudy 18 -7.8 8 -13.3 65 65 WSW 14 22 30.11 1020 10 16 0.00 0.00
2:52 pm 14:52 Cloudy 18 -7.8 8 -13.3 65 65 W 9 15 30.11 1020 10 16 0.00 0.00
3:52 pm 15:52 Cloudy 19 -7.2 8 -13.3 62 62 WNW 10 17 30.15 1021 10 16 0.00 0.00
4:52 pm 16:52 Cloudy 20 -6.7 9 -12.8 62 62 W 8 13 30.18 1022 10 16 0.00 0.00
5:52 pm 17:52 Cloudy 19 -7.2 8 -13.3 62 62 WNW 6 9 30.21 1023 10 16 0.00 0.00
6:52 pm 18:52 Cloudy 18 -7.8 9 -12.8 68 68 WSW 3 6 30.24 1024 10 16 0.00 0.00
7:52 pm 19:52 Cloudy 16 -8.9 7 -13.9 67 67 WSW 3 6 30.25 1024 10 16 0.00 0.00
8:52 pm 20:52 Mostly Cloudy 13 -10.6 7 -13.9 77 77 SSW 6 9 30.26 1025 10 16 0.00 0.00
9:35 pm 21:35 Mostly Cloudy 12 -11.1 8 -13.3 84 84 S 7 11 30.34 1027 9 14 0.00 0.00
9:52 pm 21:52 Mostly Cloudy 13 -10.6 9 -12.8 84 84 SSW 6 9 30.30 1026 8 13 0.00 0.00
10:34 pm 22:34 Clear 10 -12.2 6 -14.4 84 84 S 3 6 30.35 1028 10 16 0.00 0.00
10:52 pm 22:52 Clear 10 -12.2 6 -14.4 84 84 Calm 30.29 1026 10 16 0.00 0.00
11:52 pm 23:52 Clear 9 -12.8 5 -15 84 84 SSW 8 13 30.31 1026 10 16 0.00 0.00

Powered by AerisWeather